Погода в Петропавловке

Россия / Хабаровский край     48°40′54″N   135°31′25″E
темп.,
°C
ветер,
м/с
пор.,
м/с
влажн.,
%
обл.,
%
осадки,
мм/ч
давл.,
гПа
погр.,
м
6 мая, чт
чт601:00+4з4698100 1.1 996405
04:00+3з4799100 1.7 997312
07:00+4юз4795100 0.0 998236
10:00+6зюз698582 0.0 998450
13:00+8зюз687743 0.0 998610
16:00+10з7106951 0.3 998766
19:00+10зюз610715 0.2 999344
22:00+8ююз45773 0.2 100045
7 мая, пт
пт701:00+7ююз337743 0.0 100121
04:00+6св338299 0.0 100141
07:00+4св5791100 0.0 1002234
10:00+7св6875100 0.0 1002321
13:00+9св6767100 0.0 1001447
16:00+9св91366100 0.0 998390
19:00+8св121968100 0.0 994433
22:00+5св142279100 3.9 994525
8 мая, сб
сб801:00+4св142079100 6.1 993524
04:00+3св121890100 6.1 991446
07:00+3св111689100 0.0 992459
10:00+5св10138061 0.0 993486
13:00+7св9117383 0.0 995495
16:00+6св9117599 0.0 996513
19:00+4св111582100 0.0 997520
22:00+3св121691100 0.0 997513
9 мая, вс
вс901:00+3св121993100 0.0 994515
04:00+2св131893100 1.4 992548
07:00+2св121893100 1.9 992521
10:00+3св101692100 2.9 993425
13:00+4св111691100 0.4 993413
16:00+4св101592100 1.2 995437
19:00+4св91494100 0.7 996338
22:00+4св81495100 1.4 999392
10 мая, пн
пн1001:00+4св91694100 0.4 1000478
04:00+4св81592100 2.8 1002699
07:00+3ссв81794100 1.3 1004792
10:00+2ссв71797100 2.3 1005788
13:00+3ссв61497100 0.8 1008693
16:00+4ссв4997100 1.6 1009488
19:00+4св51086100 0.1 1011413
22:00+4св4994100 0.1 1013411